Location: Unspecified
(0.0000°N, 0.0000°E)
Time: 00:44:21
(UTC+00:00)

A-11 Canister half - All Passes

Search period start: 16 September 2019 00:00
Search period end: 26 September 2019 00:00
Orbit: 1527 x 1682 km, 47.3° (Epoch: 15 September)

Date Brightness Start Highest point End Pass type
(mag) Time Alt. Az. Time Alt. Az. Time Alt. Az.
16 Sep - 01:27:00 10° SSW 01:36:06 57° SE 01:45:10 10° NE visible
16 Sep - 03:33:12 10° WSW 03:40:54 29° NW 03:48:43 10° N visible
16 Sep - 12:14:45 10° N 12:22:38 26° NE 12:30:31 10° E daylight
16 Sep - 14:17:40 10° NW 14:27:45 71° SW 14:37:47 10° SSE daylight
16 Sep - 16:29:16 10° WSW 16:33:18 13° SW 16:37:22 10° SSW daylight
17 Sep - 01:05:28 10° SSW 01:14:29 53° SE 01:23:28 10° NE visible
17 Sep - 03:11:22 10° WSW 03:19:16 32° NW 03:27:18 10° N visible
17 Sep - 11:53:21 10° N 12:00:57 24° NE 12:08:31 10° E daylight
17 Sep - 13:55:59 10° NW 14:06:06 75° SW 14:16:12 10° SE daylight
17 Sep - 16:06:46 10° WSW 16:11:35 14° SW 16:16:24 10° SSW daylight
18 Sep - 00:43:57 10° SSW 00:52:52 49° SE 01:01:44 10° ENE night (unlit)
18 Sep - 02:49:32 10° WSW 02:57:38 34° NW 03:05:51 10° NNE visible
18 Sep - 11:32:01 10° N 11:39:15 22° NE 11:46:29 10° E daylight
18 Sep - 13:34:18 10° NW 13:44:26 80° SW 13:54:35 10° SE daylight
18 Sep - 15:44:25 10° W 15:49:52 16° SW 15:55:19 10° SSW daylight
19 Sep - 00:22:26 10° SSW 00:31:15 46° SE 00:40:00 10° ENE night (unlit)
19 Sep - 02:27:43 10° WSW 02:36:01 37° NW 02:44:23 10° NNE visible
19 Sep - 11:10:42 10° N 11:17:33 20° NE 11:24:25 10° E daylight
19 Sep - 13:12:38 10° NW 13:22:48 85° SW 13:32:57 10° SE daylight
19 Sep - 15:22:10 10° W 15:28:09 17° SW 15:34:09 10° S daylight
20 Sep - 00:00:56 10° SSW 00:09:38 42° SE 00:18:14 10° ENE night (unlit)
20 Sep - 02:05:56 10° WSW 02:14:23 39° NW 02:22:54 10° NNE visible
20 Sep - 10:49:26 10° N 10:55:51 19° NE 11:02:17 10° E daylight
20 Sep - 12:50:59 10° NW 13:01:08 90° SSE 13:11:19 10° SE daylight
20 Sep - 15:00:00 10° W 15:06:27 19° SW 15:12:55 10° S daylight
20 Sep - 23:39:27 10° SSW 23:48:01 39° SE 23:56:28 10° ENE night (unlit)
21 Sep - 01:44:10 10° WSW 01:52:46 42° NW 02:01:26 10° NNE visible
21 Sep - 10:28:12 10° N 10:34:09 17° NE 10:40:06 10° E daylight
21 Sep - 12:29:21 10° NW 12:39:29 85° NE 12:49:40 10° SE daylight
21 Sep - 14:37:52 10° W 14:44:44 20° SW 14:51:38 10° S daylight
21 Sep - 23:17:58 10° SSW 23:26:23 37° SE 23:34:41 10° ENE night (unlit)
22 Sep - 01:22:24 10° WSW 01:31:09 46° NW 01:39:55 10° NNE visible
22 Sep - 10:07:02 10° NNE 10:12:26 16° NE 10:17:51 10° E daylight
22 Sep - 12:07:43 10° NW 12:17:50 80° NE 12:28:00 10° SE daylight
22 Sep - 14:15:48 10° W 14:23:03 22° SW 14:30:19 10° S daylight
22 Sep - 22:56:31 10° SSW 23:04:45 34° SE 23:12:53 10° ENE night (unlit)
23 Sep - 01:00:40 10° WSW 01:09:33 49° NW 01:18:26 10° NNE night (unlit)
23 Sep - 09:45:57 10° NNE 09:50:43 14° NE 09:55:29 10° ENE daylight
23 Sep - 11:46:07 10° NW 11:56:11 75° NE 12:06:19 10° SE daylight
23 Sep - 13:53:46 10° W 14:01:20 24° SW 14:08:58 10° S daylight
23 Sep - 22:35:04 10° S 22:43:07 32° SE 22:51:03 10° ENE night (unlit)
24 Sep - 00:38:56 10° SW 00:47:56 53° NW 00:56:54 10° NNE night (unlit)
24 Sep - 09:24:59 10° NNE 09:29:00 13° NE 09:32:59 10° ENE daylight
24 Sep - 11:24:31 10° NNW 11:34:31 71° NE 11:44:38 10° SE daylight
24 Sep - 13:31:46 10° W 13:39:39 26° SW 13:47:34 10° S daylight
24 Sep - 22:13:38 10° S 22:21:30 29° SE 22:29:12 10° ENE night (unlit)
25 Sep - 00:17:13 10° SW 00:26:19 57° NW 00:35:23 10° NNE night (unlit)
25 Sep - 09:04:17 10° NNE 09:07:16 12° NE 09:10:15 10° ENE daylight
25 Sep - 11:02:56 10° NNW 11:12:52 66° NE 11:22:55 10° SE daylight
25 Sep - 13:09:50 10° WNW 13:17:58 28° SW 13:26:11 10° S daylight
25 Sep - 21:52:13 10° S 21:59:51 27° SE 22:07:20 10° ENE visible
